Time,TemperatureF,DewpointF,PressureIn,WindDirection,WindDirectionDegrees,WindSpeedMPH,WindSpeedGustMPH,Humidity,HourlyPrecipIn,Conditions,Clouds,dailyrainin,SoftwareType,DateUTC
2013-01-12 00:30:00,59.6,59.6,30.04,SE,134,0.0,0.0,100,0.04,,---,0.00,VWS V12.07,2013-01-12 05:30:00,
2013-01-12 01:00:00,59.6,59.6,30.03,SE,134,0.0,0.0,100,0.01,,---,0.00,VWS V12.07,2013-01-12 06:00:00,
2013-01-12 01:30:00,59.5,59.5,30.03,SE,134,0.0,0.0,100,0.01,,---,0.01,VWS V12.07,2013-01-12 06:30:00,
2013-01-12 02:00:00,59.6,59.6,30.03,SE,134,0.0,0.0,100,0.01,,---,0.01,VWS V12.07,2013-01-12 07:00:00,
2013-01-12 02:30:00,59.5,59.5,30.04,SE,134,0.0,0.0,100,0.00,,---,0.01,VWS V12.07,2013-01-12 07:30:00,
2013-01-12 03:00:00,59.2,59.2,30.05,SE,134,0.0,2.0,100,0.00,,---,0.01,VWS V12.07,2013-01-12 08:00:00,
2013-01-12 03:30:00,59.6,59.6,30.05,SE,134,0.0,0.0,100,0.00,,---,0.01,VWS V12.07,2013-01-12 08:30:00,
2013-01-12 04:00:00,59.8,59.8,30.04,ESE,104,0.0,1.0,100,0.00,,---,0.01,VWS V12.07,2013-01-12 09:00:00,
2013-01-12 04:30:00,59.6,59.6,30.04,ESE,104,0.0,0.0,100,0.00,,---,0.01,VWS V12.07,2013-01-12 09:30:00,
2013-01-12 05:00:00,59.6,59.6,30.03,SSE,168,1.0,3.0,100,0.00,,---,0.01,VWS V12.07,2013-01-12 10:00:00,
2013-01-12 05:30:00,59.5,59.5,30.02,SSE,168,0.0,0.0,100,0.00,,---,0.01,VWS V12.07,2013-01-12 10:30:00,
2013-01-12 06:00:00,58.9,58.9,30.02,SSE,168,0.0,0.0,100,0.00,,---,0.01,VWS V12.07,2013-01-12 11:00:00,
2013-01-12 06:30:00,58.7,58.7,30.03,SSE,168,0.0,0.0,100,0.00,,---,0.01,VWS V12.07,2013-01-12 11:30:00,
2013-01-12 07:00:00,58.6,58.6,30.04,SSE,168,0.0,0.0,100,0.00,,---,0.01,VWS V12.07,2013-01-12 12:00:00,
2013-01-12 07:30:00,58.7,58.7,30.06,SSE,168,0.0,0.0,100,0.00,,---,0.01,VWS V12.07,2013-01-12 12:30:00,
2013-01-12 08:00:00,59.3,59.3,30.06,SSE,168,0.0,0.0,100,0.00,,---,0.01,VWS V12.07,2013-01-12 13:00:00,
2013-01-12 08:30:00,59.5,59.5,30.06,SSE,168,0.0,0.0,100,0.00,,---,0.01,VWS V12.07,2013-01-12 13:30:00,
2013-01-12 09:00:00,60.1,60.1,30.07,SSE,168,0.0,0.0,100,0.00,,---,0.01,VWS V12.07,2013-01-12 14:00:00,
2013-01-12 09:30:00,60.7,60.7,30.07,SSE,168,0.0,0.0,100,0.00,,---,0.01,VWS V12.07,2013-01-12 14:30:00,
2013-01-12 10:00:00,61.2,61.2,30.07,SSE,168,0.0,0.0,100,0.00,,---,0.01,VWS V12.07,2013-01-12 15:00:00,
2013-01-12 10:30:00,62.7,62.7,30.07,SSE,168,0.0,0.0,100,0.00,,---,0.01,VWS V12.07,2013-01-12 15:30:00,
2013-01-12 11:00:00,63.7,63.7,30.06,SSE,168,0.0,0.0,100,0.00,,---,0.01,VWS V12.07,2013-01-12 16:00:00,
2013-01-12 11:30:00,64.7,64.7,30.04,SSE,168,0.0,0.0,100,0.00,,---,0.01,VWS V12.07,2013-01-12 16:30:00,
2013-01-12 12:00:00,64.5,64.5,30.03,SSE,168,0.0,0.0,100,0.00,,---,0.01,VWS V12.07,2013-01-12 17:00:00,
2013-01-12 12:30:00,65.6,65.6,30.01,WSW,248,3.0,7.0,100,0.00,,---,0.01,VWS V12.07,2013-01-12 17:30:00,
2013-01-12 13:30:00,69.3,61.0,29.98,SE,138,0.0,4.0,75,0.00,,---,0.01,VWS V12.07,2013-01-12 18:30:00,
2013-01-12 14:00:00,68.8,58.2,29.98,South,186,5.0,8.0,69,0.00,,---,0.01,VWS V12.07,2013-01-12 19:00:00,
2013-01-12 14:30:00,67.9,56.5,29.98,SSE,164,1.0,6.0,67,0.00,,---,0.01,VWS V12.07,2013-01-12 19:30:00,
2013-01-12 15:00:00,67.9,56.5,29.98,South,180,2.0,5.0,67,0.00,,---,0.01,VWS V12.07,2013-01-12 20:00:00,
2013-01-12 15:30:00,67.9,56.5,29.98,SSW,213,1.0,4.0,67,0.00,,---,0.01,VWS V12.07,2013-01-12 20:30:00,
2013-01-12 16:00:00,67.3,56.4,29.98,SSW,196,0.0,2.0,68,0.00,,---,0.01,VWS V12.07,2013-01-12 21:00:00,
2013-01-12 16:30:00,66.4,57.1,29.97,SSW,213,0.0,4.0,72,0.00,,---,0.01,VWS V12.07,2013-01-12 21:30:00,
2013-01-12 17:00:00,65.0,58.0,29.98,South,175,0.0,1.0,78,0.00,,---,0.01,VWS V12.07,2013-01-12 22:00:00,
2013-01-12 17:30:00,64.2,56.5,29.99,East,98,3.0,5.0,76,0.00,,---,0.01,VWS V12.07,2013-01-12 22:30:00,
2013-01-12 18:00:00,60.4,55.9,29.99,SW,234,0.0,1.0,85,0.00,,---,0.01,VWS V12.07,2013-01-12 23:00:00,
2013-01-12 18:30:00,58.4,55.8,30.00,SW,234,0.0,2.0,91,0.00,,---,0.01,VWS V12.07,2013-01-12 23:30:00,
2013-01-12 19:00:00,58.0,55.7,30.00,SW,234,0.0,0.0,92,0.00,,---,0.01,VWS V12.07,2013-01-13 00:00:00,
2013-01-12 19:30:00,58.4,56.7,30.00,SW,234,0.0,0.0,94,0.00,,---,0.01,VWS V12.07,2013-01-13 00:30:00,
2013-01-12 20:00:00,58.4,56.7,29.99,SW,234,0.0,1.0,94,0.00,,---,0.01,VWS V12.07,2013-01-13 01:00:00,
2013-01-12 20:30:00,57.5,56.4,29.98,South,169,0.0,6.0,96,0.00,,---,0.01,VWS V12.07,2013-01-13 01:30:00,
2013-01-12 21:00:00,59.9,57.3,29.97,South,188,1.0,4.0,91,0.00,,---,0.01,VWS V12.07,2013-01-13 02:00:00,
2013-01-12 21:30:00,60.1,56.8,29.97,South,188,0.0,4.0,89,0.00,,---,0.01,VWS V12.07,2013-01-13 02:30:00,
2013-01-12 22:00:00,59.9,56.7,29.97,SSW,192,0.0,0.0,89,0.00,,---,0.01,VWS V12.07,2013-01-13 03:00:00,
2013-01-12 22:30:00,59.5,56.6,29.96,South,179,0.0,1.0,90,0.00,,---,0.01,VWS V12.07,2013-01-13 03:30:00,
2013-01-12 23:00:00,58.6,56.6,29.97,South,179,0.0,0.0,93,0.00,,---,0.01,VWS V12.07,2013-01-13 04:00:00,
2013-01-12 23:30:00,58.3,56.3,29.97,South,179,0.0,1.0,93,0.00,,---,0.01,VWS V12.07,2013-01-13 04:30:00,